Wind_Speed
21 22 22 23 24 25 25 25 25 24 23 22 21 20 20 20 21 21 21 22 22 22 23 23 23 22 22 22 22 22 22 22 22 23 23 23 23 23 23 22 22 22 21 21 20 20 19 19 18 18 17 17
23 23 23 24 24 25 26 26 26 25 25 24 23 23 22 22 22 23 23 23 24 24 24 24 24 24 24 25 25 25 25 25 25 25 25 25 25 25 25 25 24 23 23 23 22 21 21 20 20 20 20 20
22 23 24 24 25 25 25 26 27 26 26 26 26 25 25 24 24 24 24 24 25 25 25 26 26 26 26 27 27 27 27 26 26 26 27 27 27 27 27 27 26 26 25 24 24 23 23 23 22 23 23 24
21 22 23 23 24 24 25 25 26 27 27 27 27 27 27 27 26 25 25 25 25 26 26 27 27 28 28 28 28 28 28 28 28 28 28 28 28 28 29 29 29 28 27 26 26 25 25 25 25 25 26 26
21 22 23 23 23 24 24 25 26 27 27 28 28 28 28 28 28 27 27 26 26 26 27 27 28 28 29 29 29 28 28 28 28 28 29 29 30 30 30 30 30 30 29 29 28 28 27 27 27 27 27 28
19 21 22 23 24 25 25 25 26 27 28 28 28 28 28 29 29 29 29 29 28 28 28 28 29 29 29 29 30 29 29 29 29 29 30 31 31 31 31 31 31 31 31 31 31 30 30 30 30 30 30 30
19 20 21 22 24 25 26 27 28 28 29 29 29 29 29 30 30 31 31 31 31 30 30 30 30 30 31 31 31 31 30 30 31 31 31 32 32 32 32 33 33 33 32 32 32 33 33 33 33 33 33 33
20 21 21 22 23 24 25 27 28 29 30 30 30 30 31 31 32 32 33 33 33 33 32 32 32 32 33 33 33 33 33 33 33 33 34 34 34 34 34 34 34 34 34 34 34 34 35 35 36 36 36 37
20 21 22 23 24 24 25 26 27 28 29 30 31 31 32 32 33 34 34 34 35 35 34 34 34 35 35 35 35 36 36 36 36 36 36 36 36 36 36 36 36 36 35 36 36 35 36 36 37 38 39 39
20 21 22 22 23 25 26 26 27 28 29 30 30 31 32 33 34 35 36 36 36 36 36 36 36 36 37 37 37 38 38 38 39 39 39 39 39 39 39 38 38 38 38 37 37 37 37 38 38 39 39 40
21 22 22 22 23 24 25 26 27 28 29 29 30 31 32 32 34 35 36 36 37 38 38 38 38 38 39 39 39 39 40 40 41 41 41 42 42 42 41 41 41 40 40 40 40 40 40 40 40 40 40 40
22 23 23 23 24 25 24 24 26 27 28 28 29 30 31 32 33 34 35 36 37 38 39 39 40 40 40 41 41 40 41 41 41 42 42 43 44 44 44 44 43 42 42 42 42 42 42 42 42 41 41 41
24 24 24 24 25 26 25 25 25 25 25 27 27 29 30 31 31 32 33 34 35 37 38 39 40 41 41 41 41 41 41 40 41 41 42 42 43 44 44 45 45 44 44 44 44 44 44 43 43 43 42 42
26 26 26 25 26 26 26 26 26 25 25 25 26 27 29 30 30 31 32 33 34 35 37 38 39 40 41 41 41 41 41 41 41 40 40 40 41 42 43 44 45 45 46 46 45 45 45 45 44 44 44 44
28 28 28 28 27 27 27 28 27 27 26 25 26 26 28 29 30 31 32 33 33 34 35 37 38 39 40 41 42 42 42 42 41 40 40 40 40 41 42 43 44 46 47 47 47 47 47 47 46 46 46 46
29 30 31 30 29 28 28 29 28 28 28 27 26 26 27 28 29 30 31 32 33 34 35 36 37 38 39 41 41 42 42 42 42 42 42 42 42 42 43 43 44 46 47 48 49 49 49 49 49 48 48 48
31 32 33 32 31 30 29 29 29 29 29 27 27 27 27 28 28 29 30 31 32 33 34 35 36 37 38 39 40 41 42 42 43 43 44 44 44 44 44 44 45 46 47 49 50 50 51 51 51 50 50 49
32 33 34 33 32 31 30 30 30 30 29 28 28 28 28 28 29 29 30 31 32 33 34 35 36 37 38 38 39 40 41 41 42 43 44 44 44 44 44 44 45 46 47 49 50 51 52 52 53 52 52 51
33 34 35 34 33 31 30 31 31 30 30 29 28 28 28 29 29 29 30 31 32 33 34 35 36 36 37 38 38 39 39 40 41 42 43 43 43 44 44 45 46 47 48 49 50 51 53 54 54 54 54 53
34 35 35 34 33 32 31 31 31 30 30 29 28 28 29 29 30 30 31 32 32 34 35 35 36 36 36 37 38 39 39 40 40 42 43 44 45 45 46 47 47 48 48 49 50 51 52 54 55 55 55 55
35 36 35 34 33 32 31 31 31 30 30 29 29 29 30 31 31 31 32 33 33 34 35 35 35 35 35 36 37 38 39 40 40 41 43 44 45 46 47 48 49 49 49 49 50 51 52 53 54 55 55 55
36 37 35 34 33 32 31 31 31 30 30 30 30 30 31 32 32 33 34 34 34 34 34 34 33 34 34 34 35 36 37 38 39 40 41 42 44 45 46 47 48 49 50 50 50 51 52 53 54 55 55 55
36 36 35 33 32 32 31 31 31 31 31 30 31 32 32 33 34 34 35 35 34 34 33 33 33 33 33 34 34 35 35 36 38 39 40 41 42 43 44 45 46 48 49 49 50 50 51 52 53 54 54 54
37 36 34 33 32 32 32 32 32 31 32 32 33 33 34 34 35 35 35 34 34 33 34 34 33 33 33 34 34 34 35 36 37 38 39 40 41 42 43 44 45 46 47 48 49 49 50 51 52 52 52 53
37 36 34 33 32 33 33 33 32 32 33 34 34 35 35 35 35 35 34 34 34 34 35 35 35 35 35 34 34 34 35 36 37 38 39 40 41 43 43 44 45 45 47 48 48 49 49 50 51 52 52 52
36 35 34 34 33 33 33 33 32 33 34 35 35 36 37 37 36 35 34 34 35 36 37 37 38 37 36 36 35 36 36 37 38 39 40 41 42 43 44 44 44 45 46 47 47 48 49 51 51 51 52 52
35 35 35 34 34 34 33 33 34 35 35 36 37 38 38 37 37 36 35 36 36 37 38 39 39 38 38 37 37 38 38 39 40 41 41 42 43 43 44 44 44 44 45 45 46 47 48 50 51 51 51 52
35 35 35 34 34 34 34 35 36 36 37 38 38 38 38 38 38 37 37 38 39 39 40 40 40 39 38 38 39 40 40 41 42 42 42 43 44 44 44 44 44 44 44 45 46 47 47 48 49 50 50 51
35 34 34 34 35 35 36 37 37 37 38 39 39 39 39 39 39 39 40 41 42 42 42 42 41 40 40 40 41 42 42 43 43 43 43 43 44 44 44 44 45 44 44 44 45 46 47 47 48 49 50 50
34 34 34 35 36 37 37 38 38 39 40 40 40 40 40 40 40 41 42 43 44 45 45 44 44 43 43 43 43 44 44 44 44 43 43 43 43 43 44 44 45 45 45 45 45 46 46 47 48 49 50 50
34 35 36 36 37 38 38 39 39 40 41 41 40 40 40 41 42 43 44 45 46 47 47 47 47 47 46 46 46 46 45 45 44 43 43 42 43 43 43 44 45 45 46 46 46 47 47 48 49 50 52 53
Wind_Direction
260 261 263 263 264 263 263 263 263 263 264 265 265 266 267 268 270 270 271 271 271 271 271 272 272 272 273 274 275 275 275 274 274 273 272 271 271 271 271 272 272 272 272 272 271 270 270 270 268 267 266 266
261 261 262 262 262 262 261 261 261 262 263 263 263 263 264 264 265 266 266 266 266 267 267 268 268 269 271 272 274 275 275 275 275 274 273 272 270 269 268 268 268 268 267 267 265 265 264 263 263 262 262 264
262 261 261 261 261 261 261 259 259 261 262 263 263 263 263 263 263 263 263 263 263 263 263 264 265 266 267 268 270 272 273 274 274 274 273 272 271 269 267 266 266 266 265 264 263 262 261 261 260 261 262 265
266 264 262 261 260 260 260 259 259 260 262 263 264 264 264 264 264 264 264 263 263 262 262 261 262 263 264 265 267 269 270 271 272 272 272 272 271 271 269 268 266 265 264 263 262 262 261 261 262 262 264 266
271 268 266 263 261 260 259 258 258 259 260 262 264 265 265 265 266 266 267 266 266 264 263 262 261 261 262 263 265 267 269 269 269 270 270 271 271 271 271 270 268 267 265 263 262 261 261 262 263 264 265 266
276 273 270 267 264 262 260 259 258 258 259 261 262 264 265 266 266 267 267 267 267 266 265 264 263 262 261 262 263 265 267 267 268 269 271 271 272 272 272 271 270 269 267 264 263 261 261 261 262 264 265 266
281 278 275 272 268 265 262 260 260 259 260 261 262 263 264 265 265 266 266 266 266 265 265 264 263 262 262 262 263 264 265 266 267 268 270 272 273 274 273 272 270 269 268 266 264 262 261 261 262 263 265 266
282 280 278 275 272 269 266 264 263 262 262 262 263 264 264 265 266 266 267 266 266 265 265 264 264 263 263 262 263 263 264 264 265 267 269 271 273 274 274 274 272 270 268 267 266 264 262 261 262 263 264 265
281 279 277 275 274 272 269 267 266 265 264 264 265 265 266 268 269 269 269 269 269 268 267 266 266 265 264 264 265 265 265 265 266 267 268 270 272 273 274 274 273 272 270 268 267 265 264 263 263 263 263 264
279 276 274 274 273 272 270 268 267 266 266 265 266 267 268 269 271 272 273 273 274 273 273 271 270 269 268 268 267 267 267 267 267 268 269 270 271 272 272 273 272 272 270 268 267 266 265 265 265 265 264 264
279 275 273 272 271 271 269 268 267 266 266 266 267 268 269 270 271 272 274 275 276 277 277 276 275 273 272 271 270 270 270 269 269 270 270 270 271 271 272 271 271 270 269 268 267 266 265 266 266 266 266 265
279 276 273 271 270 269 269 269 268 267 267 267 267 268 268 269 270 272 274 275 276 277 277 277 276 276 274 273 272 272 271 271 271 271 271 271 271 270 270 270 269 268 267 267 266 265 265 265 265 266 266 266
280 277 274 272 270 269 269 270 270 270 270 269 268 268 268 269 270 271 273 274 275 276 276 276 276 276 275 274 274 273 272 272 272 272 271 271 271 270 269 269 268 267 266 265 265 264 264 264 264 264 265 265
281 278 275 272 271 270 270 270 270 270 271 272 271 270 270 270 271 271 272 273 274 275 275 276 276 275 275 274 274 273 273 273 273 272 272 271 271 271 270 269 268 267 266 265 264 263 263 263 262 262 263 264
280 278 275 273 272 271 270 269 270 270 271 272 273 273 273 272 272 273 273 274 274 275 276 276 276 275 275 274 273 273 273 273 273 272 271 271 272 272 271 271 270 268 267 265 264 263 262 262 262 262 262 263
278 277 275 273 272 271 270 270 270 270 270 271 273 274 274 275 275 275 275 275 275 276 276 276 276 276 276 275 274 273 273 272 272 271 271 271 272 272 271 271 270 269 268 267 265 264 262 262 262 262 263 263
278 276 275 273 272 271 270 270 270 269 270 271 272 274 275 276 277 277 277 277 277 277 277 277 277 276 276 275 275 274 273 272 271 271 271 271 271 271 271 270 270 270 269 268 266 264 263 262 262 262 263 263
279 276 274 274 273 272 270 269 269 269 270 271 272 273 275 277 278 279 279 280 280 279 279 278 277 276 276 275 274 274 273 273 272 271 271 271 271 271 271 270 270 270 270 269 268 266 264 262 262 262 263 262
278 276 275 275 274 272 269 268 268 269 270 271 272 274 275 278 279 281 282 282 281 281 280 279 278 277 275 274 273 272 272 272 272 271 271 270 270 270 270 271 271 271 270 270 269 267 265 264 263 263 262 262
278 276 276 275 273 270 268 267 268 269 270 271 272 274 277 279 281 283 283 283 282 281 280 279 278 277 275 274 272 271 271 270 270 270 270 269 269 269 270 270 271 271 271 271 270 268 267 265 264 263 263 261
276 275 274 274 272 269 267 266 267 268 270 272 274 277 279 281 282 283 284 283 282 280 279 278 278 277 276 275 273 272 271 270 270 270 270 270 270 270 270 271 271 272 272 272 271 270 268 266 265 264 263 262
274 273 274 274 272 269 266 266 267 268 270 273 276 279 280 281 283 284 284 283 281 280 279 278 278 278 277 276 275 274 272 272 271 271 271 272 272 272 272 272 273 273 272 272 271 271 269 267 265 265 264 264
272 272 273 274 271 268 266 266 266 268 270 273 277 279 280 282 283 284 284 283 282 281 279 279 280 281 279 277 275 274 273 273 272 272 272 272 272 272 272 272 272 272 272 271 271 271 270 268 266 265 265 265
270 270 272 271 269 266 264 264 266 268 272 275 278 280 282 283 284 285 285 284 282 281 279 279 281 282 281 279 277 275 274 274 274 273 273 272 272 272 271 271 271 271 271 271 271 270 270 269 267 266 265 265
269 270 271 269 266 263 262 263 266 269 272 275 279 282 283 283 284 285 285 283 281 280 279 279 279 281 281 280 278 277 277 276 276 275 274 273 273 272 271 270 271 271 272 272 271 271 270 269 267 267 266 266
269 270 269 266 264 262 263 265 267 269 271 276 280 282 283 284 285 285 284 283 281 280 279 279 279 280 281 280 279 279 278 279 279 277 276 274 273 272 271 271 271 272 272 272 271 270 270 269 268 267 266 266
268 267 265 264 264 264 265 266 267 269 273 276 279 281 282 284 285 285 285 284 282 281 280 280 280 281 281 280 280 279 279 279 280 279 277 275 273 272 272 272 271 271 271 271 270 269 268 268 268 267 266 266
264 263 263 264 265 266 267 268 269 271 274 277 279 282 283 284 285 287 287 286 284 282 281 281 280 279 280 280 279 279 279 279 279 279 278 276 274 272 272 272 271 271 271 270 270 269 268 267 268 268 268 267
262 263 264 265 266 267 268 269 270 272 275 278 281 283 284 285 286 288 288 288 286 285 283 282 281 280 279 279 279 279 278 278 278 278 278 277 274 272 272 271 271 271 270 270 270 269 268 266 267 268 268 268
263 264 266 267 268 269 269 271 272 274 276 279 281 283 284 285 287 288 288 288 287 286 285 284 283 282 281 281 281 280 279 279 278 279 278 277 275 273 272 271 271 271 270 270 270 270 269 267 267 267 268 268
264 265 267 267 268 269 271 272 273 275 277 279 281 284 285 285 287 288 288 288 287 286 285 285 284 284 283 283 283 282 281 280 279 279 278 276 274 272 271 271 271 271 271 271 272 271 271 269 268 268 268 268
Height
5856 5856 5856 5856 5856 5856 5856 5856 5857 5857 5857 5857 5857 5857 5857 5857 5857 5857 5857 5857 5858 5858 5858 5858 5859 5859 5859 5860 5860 5860 5860 5861 5861 5861 5861 5861 5862 5862 5862 5862 5862 5862 5863 5863 5863 5863 5863 5863 5863 5863 5864 5864
5853 5854 5854 5854 5853 5853 5853 5854 5854 5854 5854 5854 5855 5855 5855 5855 5855 5855 5855 5856 5856 5856 5856 5856 5856 5857 5857 5857 5857 5858 5858 5858 5858 5858 5858 5859 5859 5859 5860 5860 5861 5861 5861 5861 5861 5861 5862 5862 5862 5862 5862 5862
5851 5851 5851 5851 5851 5851 5851 5851 5851 5852 5852 5852 5852 5852 5853 5853 5853 5853 5853 5853 5853 5854 5854 5854 5854 5855 5855 5855 5855 5855 5855 5855 5855 5856 5856 5856 5856 5857 5857 5858 5858 5859 5859 5859 5860 5860 5860 5860 5860 5860 5860 5860
5849 5849 5849 5849 5848 5848 5848 5848 5849 5849 5849 5849 5850 5850 5850 5850 5850 5851 5851 5851 5851 5851 5851 5852 5852 5852 5853 5853 5853 5853 5853 5853 5853 5853 5853 5853 5854 5854 5855 5855 5856 5856 5857 5857 5857 5858 5858 5858 5858 5858 5858 5858
5847 5847 5846 5846 5846 5846 5846 5846 5846 5846 5847 5847 5847 5847 5847 5848 5848 5848 5848 5848 5848 5848 5849 5849 5849 5850 5850 5850 5850 5850 5850 5850 5851 5850 5850 5851 5851 5851 5852 5852 5853 5853 5854 5855 5855 5855 5855 5855 5855 5855 5855 5855
5845 5845 5844 5844 5844 5844 5844 5844 5844 5844 5844 5844 5844 5845 5845 5845 5845 5845 5845 5845 5845 5846 5846 5846 5847 5847 5847 5847 5847 5847 5847 5847 5848 5847 5847 5848 5848 5848 5848 5849 5850 5850 5851 5851 5852 5852 5852 5852 5852 5852 5853 5853
5843 5843 5842 5842 5842 5842 5841 5841 5841 5841 5841 5841 5842 5842 5842 5842 5842 5842 5842 5842 5843 5843 5843 5844 5844 5844 5844 5844 5844 5844 5844 5844 5844 5844 5844 5844 5844 5845 5845 5845 5846 5846 5847 5848 5848 5849 5849 5849 5849 5849 5849 5849
5840 5840 5840 5840 5839 5839 5839 5839 5839 5839 5838 5838 5839 5839 5839 5839 5839 5839 5839 5839 5840 5840 5840 5841 5841 5841 5841 5841 5841 5841 5841 5841 5841 5841 5841 5841 5841 5841 5842 5842 5842 5843 5843 5844 5844 5845 5845 5845 5845 5846 5845 5845
5838 5837 5837 5837 5837 5837 5836 5836 5836 5836 5836 5836 5836 5836 5836 5836 5836 5836 5836 5836 5836 5836 5837 5837 5838 5838 5838 5838 5838 5838 5837 5837 5837 5837 5837 5837 5838 5838 5838 5838 5838 5839 5839 5840 5840 5840 5841 5841 5841 5841 5841 5841
5835 5834 5834 5834 5834 5833 5833 5833 5833 5833 5833 5833 5833 5832 5832 5832 5832 5832 5832 5832 5832 5832 5833 5833 5834 5834 5834 5834 5834 5834 5834 5834 5834 5834 5834 5834 5834 5834 5834 5834 5835 5835 5835 5835 5836 5836 5836 5836 5837 5837 5837 5837
5831 5831 5831 5831 5830 5830 5830 5830 5830 5830 5829 5830 5829 5829 5829 5829 5829 5829 5829 5829 5829 5829 5829 5829 5829 5829 5830 5830 5830 5830 5830 5830 5830 5830 5830 5830 5830 5830 5830 5830 5831 5831 5831 5831 5831 5832 5832 5832 5832 5833 5833 5833
5828 5827 5827 5827 5827 5826 5826 5827 5826 5826 5826 5826 5826 5826 5826 5826 5826 5826 5826 5826 5825 5825 5825 5825 5825 5825 5825 5825 5825 5826 5826 5826 5826 5826 5826 5826 5826 5826 5826 5827 5827 5827 5827 5827 5827 5828 5828 5828 5828 5828 5828 5829
5824 5823 5824 5824 5823 5823 5823 5823 5823 5823 5823 5823 5823 5823 5822 5822 5823 5823 5822 5822 5822 5822 5821 5821 5821 5821 5821 5821 5821 5821 5821 5822 5822 5822 5822 5822 5822 5822 5822 5822 5823 5823 5823 5823 5823 5823 5824 5824 5824 5824 5824 5824
5820 5819 5819 5819 5819 5819 5819 5819 5819 5819 5819 5819 5819 5819 5819 5819 5819 5819 5819 5819 5818 5818 5818 5817 5817 5817 5816 5816 5817 5817 5817 5817 5818 5818 5818 5818 5818 5818 5818 5818 5818 5818 5819 5819 5819 5819 5819 5819 5820 5820 5820 5820
5816 5815 5815 5815 5815 5815 5815 5814 5815 5815 5815 5815 5815 5815 5815 5815 5815 5815 5815 5815 5814 5814 5814 5813 5813 5812 5812 5812 5812 5812 5812 5813 5813 5813 5814 5814 5814 5814 5814 5814 5814 5814 5814 5814 5814 5814 5814 5814 5815 5815 5815 5816
5812 5811 5811 5811 5811 5811 5811 5810 5811 5811 5811 5811 5811 5811 5811 5811 5811 5811 5811 5810 5810 5810 5810 5809 5809 5808 5808 5808 5808 5808 5808 5808 5808 5808 5809 5809 5809 5809 5809 5809 5809 5809 5809 5809 5810 5810 5810 5810 5810 5810 5810 5811
5808 5807 5807 5807 5807 5807 5807 5807 5806 5806 5806 5807 5807 5807 5807 5807 5807 5807 5807 5806 5806 5806 5806 5805 5805 5804 5804 5804 5803 5803 5803 5803 5804 5804 5804 5804 5804 5804 5804 5804 5804 5804 5804 5804 5805 5805 5805 5805 5805 5805 5805 5806
5804 5803 5803 5803 5803 5803 5803 5802 5802 5802 5802 5802 5803 5803 5803 5803 5803 5803 5803 5802 5802 5802 5801 5801 5800 5800 5800 5800 5799 5799 5799 5799 5799 5799 5799 5799 5798 5798 5799 5799 5799 5799 5799 5799 5799 5799 5799 5800 5799 5800 5800 5801
5799 5799 5799 5799 5798 5798 5798 5798 5798 5798 5798 5798 5798 5799 5798 5798 5798 5799 5799 5798 5798 5797 5797 5796 5796 5796 5796 5795 5795 5795 5795 5795 5794 5794 5794 5794 5793 5793 5793 5793 5793 5793 5793 5793 5794 5794 5794 5794 5794 5794 5795 5795
5795 5794 5795 5794 5794 5794 5794 5794 5794 5794 5793 5794 5794 5794 5794 5794 5794 5794 5794 5794 5793 5793 5792 5792 5791 5791 5791 5791 5791 5790 5790 5790 5790 5789 5789 5789 5788 5788 5788 5788 5788 5788 5788 5788 5788 5788 5788 5789 5789 5789 5789 5790
5790 5790 5790 5790 5790 5790 5790 5790 5790 5789 5789 5789 5790 5790 5790 5790 5790 5790 5790 5789 5789 5788 5787 5787 5787 5787 5786 5786 5786 5786 5785 5785 5785 5784 5784 5784 5784 5783 5783 5783 5783 5783 5783 5783 5783 5782 5783 5783 5783 5784 5784 5784
5786 5785 5785 5785 5786 5785 5786 5786 5786 5785 5785 5785 5785 5786 5785 5785 5786 5785 5785 5785 5784 5783 5783 5783 5782 5782 5782 5781 5781 5781 5780 5780 5780 5779 5779 5779 5778 5778 5778 5778 5778 5777 5777 5777 5777 5777 5777 5777 5778 5778 5779 5779
5781 5781 5781 5781 5781 5781 5782 5781 5781 5781 5781 5781 5781 5781 5781 5781 5781 5781 5780 5780 5779 5779 5778 5778 5777 5777 5777 5776 5776 5775 5775 5775 5774 5774 5774 5773 5773 5773 5772 5772 5772 5772 5771 5771 5771 5770 5771 5771 5772 5773 5773 5773
5776 5777 5777 5777 5777 5777 5777 5777 5776 5777 5777 5777 5777 5776 5776 5776 5776 5775 5775 5775 5774 5774 5773 5773 5772 5772 5772 5771 5771 5770 5770 5769 5769 5768 5768 5768 5767 5767 5767 5767 5767 5766 5766 5765 5765 5765 5765 5765 5766 5767 5767 5767
5772 5772 5772 5772 5772 5772 5772 5772 5772 5773 5772 5772 5772 5771 5771 5771 5770 5770 5770 5770 5769 5768 5768 5767 5767 5766 5766 5766 5765 5765 5765 5764 5763 5763 5762 5762 5761 5761 5761 5761 5761 5761 5760 5760 5759 5759 5759 5759 5760 5761 5762 5762
5767 5768 5767 5767 5767 5767 5767 5768 5768 5768 5768 5767 5767 5767 5766 5766 5765 5765 5765 5764 5764 5763 5762 5762 5761 5761 5760 5760 5760 5759 5759 5758 5758 5757 5757 5756 5755 5754 5754 5754 5754 5754 5754 5754 5754 5754 5753 5753 5754 5755 5756 5756
5763 5762 5762 5762 5762 5762 5763 5763 5763 5763 5763 5763 5762 5761 5761 5760 5760 5760 5760 5759 5759 5758 5757 5756 5756 5756 5755 5754 5754 5753 5753 5752 5752 5751 5751 5750 5749 5748 5747 5747 5748 5748 5748 5748 5748 5749 5748 5747 5747 5748 5750 5750
5757 5757 5757 5757 5757 5757 5758 5758 5758 5758 5758 5757 5757 5756 5756 5755 5755 5755 5755 5754 5753 5753 5752 5751 5751 5750 5749 5748 5748 5747 5747 5746 5746 5745 5745 5744 5743 5742 5741 5741 5741 5741 5742 5742 5742 5742 5743 5742 5741 5741 5743 5744
5752 5752 5752 5752 5752 5752 5753 5752 5752 5753 5752 5752 5751 5751 5751 5750 5750 5750 5749 5748 5747 5747 5746 5746 5745 5744 5743 5742 5741 5741 5740 5740 5739 5739 5738 5737 5736 5735 5735 5734 5734 5735 5736 5736 5736 5736 5736 5737 5736 5735 5736 5737
5748 5748 5747 5747 5747 5747 5747 5747 5747 5747 5747 5746 5746 5746 5745 5745 5744 5744 5743 5742 5741 5740 5740 5739 5738 5738 5737 5736 5735 5735 5734 5733 5733 5732 5732 5731 5730 5729 5729 5728 5728 5728 5729 5730 5730 5730 5730 5731 5731 5730 5730 5731
5743 5743 5742 5742 5742 5742 5742 5742 5742 5741 5741 5741 5740 5740 5740 5739 5738 5738 5736 5735 5734 5733 5733 5732 5732 5731 5731 5730 5729 5728 5727 5727 5726 5726 5725 5724 5724 5723 5722 5722 5722 5722 5722 5724 5724 5724 5725 5725 5725 5725 5724 5725